Regional Weather Roundup
Issued by NWS Wakefield, VA

Home | Current Version | Previous Version | Graphics & Text | Print | Product List | Glossary On
Versions: 1 2 3 4 5 6 7 8 9 10 11 12 13 14 15 16 17 18 19 20 21 22 23 24 25 26 27 28 29 30 31 32 33 34 35 36 37 38 39 40 41 42 43 44 45 46 47 48 49 50
000
ASUS41 KAKQ 292210
RWRAKQ

REGIONAL WEATHER ROUNDUP
NATIONAL WEATHER SERVICE WAKEFIELD VA
500 PM EST THU JAN 29 2015

Note: "fair" indicates few or no clouds below 12,000 feet with no
significant weather and/or obstructions to visibility. * = Denotes
station may not report precipitation (e.g., rain,snow,etc.),
thunder or fog.

VAZ042-051-052>054-056-292300-
NORTHERN VIRGINIA

CITY           SKY/WX    TMP DP  RH WIND       PRES   REMARKS
WASH NATIONAL  LGT RAIN  36  22  56 SE6       30.10F
DULLES         CLOUDY    32  24  72 SE7       30.07F
FORT BELVOIR   CLOUDY    32  28  86 VRB2      30.09F
QUANTICO       CLOUDY    36  27  69 S10       30.09F
FREDERICKSBRG* CLOUDY    38  22  51 SE8       30.07F
STAFFORD*      CLOUDY    36  22  58 CALM      30.11F
WARRENTON      CLOUDY    35  31  85 SE3       30.05F
CULPEPER*      CLOUDY    36  27  69 S3        30.06F
MANASSAS*      CLOUDY    34  28  80 CALM      30.07F
LEESBURG*      FLURRIES  32  28  86 SE5       30.06F
WINCHESTER     CLOUDY    34  23  64 S10       29.99F
FRONT ROYAL*   CLOUDY    32  30  93 CALM      29.99F
LURAY*         CLOUDY    37  28  70 SW7       29.98F
$$

VAZ048-049-060>072-079>083-292300-
CENTRAL AND SOUTH CENTRAL VIRGINIA

CITY           SKY/WX    TMP DP  RH WIND       PRES   REMARKS
RICHMOND       CLOUDY    42  16  34 S9        30.10F
CHESTERFIELD*  CLOUDY    43  14  31 S7        30.11F
PETERSBURG*    LGT RAIN  43  15  32 S7        30.11F
HANOVER        CLOUDY    39  17  41 VRB5      30.11F
TAPPAHANNOCK*  CLOUDY    39   9  28 SE8       30.11F
QUINTON*       MOCLDY    41  14  34 SE3       30.10F
CHARLOTTSVILLE CLOUDY    39  23  52 S9        30.04F
GORDONSVILLE*  CLOUDY    38  23  54 SW3       30.04F
ORANGE*        CLOUDY    37  27  65 S5        30.06F
LOUISA*        MOCLDY    41  18  38 S6        30.04F
BUMPASS*       CLOUDY    39  16  38 S6        30.07F
FARMVILLE*     CLOUDY    43  25  48 S12       30.06F
CREWE*         CLOUDY    42  15  33 S7        30.09S
FORT PICKETT*  CLOUDY    41  18  39 S12       30.09S
CHASE CITY*    CLOUDY    42  26  52 CALM      30.10F
CLARKSVILLE*   CLOUDY    41  25  52 S5        30.10F
SOUTH HILL*    CLOUDY    40  22  49 S7        30.17F
LAWRENCEVILLE* CLOUDY    41  20  44 S6        30.11F
EMPORIA*       CLOUDY    41  18  38 SE7       30.15F
$$

VAZ088>098-292300-
SOUTHEAST VIRGINIA

CITY           SKY/WX    TMP DP  RH WIND       PRES   REMARKS
NORFOLK        CLOUDY    41  16  36 S10       30.16F
VIRGINIA BEACH CLOUDY    41  18  39 S8        30.17F
NORFOLK NAVAL  CLOUDY    44  19  36 S6        30.17F
WEST POINT*    MOCLDY    41  18  38 SE9       30.14F
SALUDA*        FAIR      37  21  51 S7        30.14F
NEWPORT NEWS   CLOUDY    43  19  38 S13       30.14F
LANGLEY AFB    CLOUDY    40  22  47 S10       30.15F
FORT EUSTIS    CLOUDY    41  25  52 S8        30.12F
WILLIAMSBURG*    N/A     45  19  36 S8        30.15S
HR EXEC AP*    FAIR      41  18  38 S8        30.18F
FRANKLIN*      CLOUDY    41  15  35 S8        30.16F
WAKEFIELD      CLOUDY    43  15  32 VRB5      30.14F
$$

VAZ020-022-025-037-045-292300-
WEST CENTRAL AND SOUTHWEST VIRGINIA

CITY           SKY/WX    TMP DP  RH WIND       PRES   REMARKS
STAUNTON*      CLOUDY    38  25  60 SE3       30.00F
WAYNESBORO*    CLOUDY    38  25  60 S9G17     29.98S
HOT SPRINGS VA CLOUDY    32  26  78 S6        29.88S
LYNCHBURG      MOCLDY    40  26  57 S13       30.04F
DANVILLE       CLEAR     46  23  40 S8        30.08F
SOUTH BOSTON*  FAIR      42  20  42 S5        30.10S
MARTINSVILLE   CLEAR     47  21  36 SW6G16    30.08F
ROANOKE        CLOUDY    44  26  49 S6        30.02F
BLACKSBURG     CLOUDY    40  25  55 S10       30.01S
DUBLIN*        CLOUDY    43  28  55 S7        29.99S
MARION*        CLOUDY    44  32  62 CALM      29.98S
HILLSVILLE*    CLOUDY    38  26  61 S10G20    29.99S
RICHLANDS*     FAIR      45  28  50 SW8G22    29.96R
WISE*          CLEAR     45  32  61 SW10      29.97R
ABINGDON*      CLEAR     49  31  49 W14       29.99R
$$

MDZ021>025-VAZ099-100-292300-
SOUTHERN MARYLAND AND THE DELMARVA PENINSULA

CITY           SKY/WX    TMP DP  RH WIND       PRES   REMARKS
PATUXENT RIVER CLOUDY    36  23  59 S9        30.12F
BAY BRIDGE APT   N/A     34  14  44 S12       30.11F
LEONARDTOWN    CLOUDY    36  21  55 SE7       30.13S
DOVER          CLOUDY    34  24  66 E9        30.12F
GEORGETOWN     CLOUDY    35  19  52 S8        30.15F
EASTON         MOCLDY    36  18  48 S8        30.15F
CAMBRIDGE      CLOUDY    36  21  55 S9        30.12F
SALISBURY      CLOUDY    37  16  42 SE9       30.15F
OCEAN CITY     CLOUDY    34  24  67 SW8       30.19S
WALLOPS ISLAND CLOUDY    34  24  67 S9        30.18F
ACCOMACK*      CLOUDY    34  21  60 S7        30.16F
$$

NCZ012>017-030>032-292300-
NORTH CENTRAL AND EASTERN NORTH CAROLINA

CITY           SKY/WX    TMP DP  RH WIND       PRES   REMARKS
ROANOKE RAPIDS LGT RAIN  41  27  56 S6        30.15S
RALEIGH        CLOUDY    41  30  65 S7        30.13F
ELIZABETH CITY MOCLDY    40  21  46 SW7       30.22S
AHOSKIE*       CLOUDY    41  17  37 S6        30.17F
EDENTON*       MOCLDY    43  22  44 S6        30.20S
CURRITUCK*     MOCLDY    39  16  38 CALM      30.20F
KILL DEVIL HLS MOCLDY    37  25  60 CALM      30.21S
MANTEO         MOCLDY    37  28  70 S5        30.23R
CAPE HATTERAS  CLOUDY    38  25  59 W3        30.23F
TARBORO*       FAIR      46  18  33 S5        30.18F
GOLDSBORO      PTCLDY    47  19  32 S2        30.16F
WASHINGTON     MOCLDY    45  16  31 S5        30.21S
GREENVILLE     PTCLDY    45  18  33 S7        30.19F
NEW BERN       MOCLDY    49  13  23 S7        30.23S
WILMINGTON     MOCLDY    49  20  31 SW10      30.22F
$$

VAZ048-292300-
ELSEWHERE

CITY           SKY/WX    TMP DP  RH WIND       PRES   REMARKS
HARRISBURG PA  LGT SNOW  27  22  81 S9G21     30.06F VSB 3/4
BALTIMORE      LGTSLEET  33  19  56 SE6       30.09F
ANNAPOLIS      CLOUDY    34  19  54 S9        30.11F
ANDREWS AFB    FRZ RAIN  32  23  69 SE7       30.09S
PHILADELPHIA   CLOUDY    34  10  37 S8        30.13F
HENDERSON NC   CLOUDY    40  22  48 S9        30.10F
GREENSBORO     PTCLDY    45  24  43 S12       30.07F
ROCKY MOUNT    MOCLDY    45  18  34 S7        30.17F
$$

VAZ100-292300-
MARINE

STATION/POSITION TIME  TEMP    WIND        PRES    WAVE   SWELL
                       AIR SEA DIR/SP/G            HT/PER HT/PER
                 (UTC) (F)     (DEG/KT/KT) (MB)    (FT/S) (FT/S)
BRANDYWINE LGT   2200   34 36  170/ 17/ 19 1021.2S
CAPE MAY NJ      2200   34 36              1021.0S
LEWES DE         2200   35 35  160/  7/  9 1021.1F
15NM E FENWICK I 2200   36 41              1021.4F   3/11
OCEAN-CITY-INLET 2200   35 38  210/ 12/ 14 1021.5R
WACHAPREAGUE VA  2200   35 35  180/  8/ 12 1021.4F
THOMAS POINT MD  2200   34 35  170/ 16/ 17 1020.6F
GOOSES REEF MD   2200   35     VRB 17/ 19  1018.7F
COVE POINT MD    2200   34     180/ 20/ 21 1019.5F
SOLOMONS ISLAND  2200      38                N/A
BISHOPS HEAD MD  2200   35 33  160/ 16/ 18 1019.7F
PINEY POINT MD   2200          160/ 13/ 15   N/A
POTOMAC MD       2200   36     170/ 14/ 16 1019.3F
CAMBRIDGE MD     2200   35 35  170/  8/ 13 1019.9F
LEWISETTA VA     2200   37 36  170/  9/ 11 1019.6F
RAPPAHANNOCK LGT 2200          160/ 15/ 15 1021.3F
STINGRAY PT      2200   37     180/ 14/ 17 1021.1F
YORK RVR RNG VA  2200   38     160/ 13/ 14 1020.1R
YORKTOWN VA      2200   40 39  180/  8/  9 1020.6R
JAMESTOWN VA     2200   42     190/ 10/ 12   N/A
DOMINION TERM VA 2200   41     190/  9/ 11 1021.3F
KIPTOPEKE VA     2200      44  160/ 12/ 14   N/A
CHES BAY BRIDGE  2200   40 40  150/  9/ 11 1020.9F
CAPE HENRY VA    2200   39     180/  5/  8 1020.3F
CHESAPEAKE LGHT  2100   36     180/ 11/ 12 1022.9F
WILLOUBY STN VA  2200   41     200/ 13/ 16 1021.6F
S CRANEY ISL VA  2200          190/  7/ 10 1021.5S
CAPE HENRY BUOY  2200      42                N/A     3/ 7   2/12
1ST LANDING BUOY 2200   40     170/ 10/ 12 1021.2F
CAPE CHARLES BUO 2200      40                N/A     2/11   2/11
OFFSHORE WE BUOY 2200      43                N/A     4/ 7   3/ 7
64NM E OF VA BCH 2200   40 49  230/  6/ 10 1022.5F   4/11   3/11
DUCK PIER NC     2200   38 44  190/  4/  5 1022.1F
44100 DUCK FRF   2200      45                N/A     4/11   2/11
44056 DUCK FRF   2200      42                N/A     3/11   2/11
OREGON INLET NC  2200   38 42  200/  8/ 10 1023.2F
HATTERAS NC      2200   39 44  240/  2/  5 1023.8F


USA.gov is the U.S. government's official web portal to all federal, state and local government web resources and services.